CZ-2D DEB (45803 NORAD) Tracking and Keplerian Element Data

This shows tracking and keplerian element data for the satellite.

Feedback or suggestion? Click here.




ElementValue
Catalog45803
NameCZ-2D DEB
Epoch Orbit230
Epoch Day184.82902752
Epoch Year2020
RAAN305.9687
Inclination97.1935
Eccentricity0.0044026
Argument of Perigee257.729
Mean Anonmoly101.9023
Mean Motion15.3192824
Decay Rate1.98E-05
L11 45803U 20039G 20184.82902752 .00001980 00000-0 64863-4 0 9993
L22 45803 97.1935 305.9687 0044026 257.7290 101.9023 15.31928240 2308

Live tracking and technical data element details for CZ-2D DEB (NORAD 45803). CZ-2D DEB can be tracked NOW for your location showing map with azimuth and elevation plus other details from your city location.

Track the satellite on the map from your city or location and see movement details for azimuth, elevation, latitude, longitude, range, height, and movement on the map or in text.







IsCatalogInMostPopularTable: catalog: 45803, numindb: 4
Update: records affected: 1



GetName: 45803 CZ-2D DEB

Hit Count: updated at: Sat, 04 Jul 2020 02:13:25 GMT